Nashua, NH

10:58 PM EDT on March 22, 2017 (GMT -0400)
Boire

Weather History for KASH - December, 2012

Change the Weather History Date:

Wednesday, December 12, 2012

  Actual Average Record
Temperature  
Mean Temperature 31 °F -  
Max Temperature 37 °F 36 °F 65 °F (1979)
Min Temperature 24 °F 18 °F -10 °F (1977)
Degree Days  
Heating Degree Days 34    
Moisture  
Dew Point 22 °F    
Average Humidity 74    
Maximum Humidity 88    
Minimum Humidity 51    
Precipitation  
Precipitation 0.00 in - - ()
Sea Level Pressure  
Sea Level Pressure 30.35 in    
Wind  
Wind Speed 1 mph (South)    
Max Wind Speed 6 mph    
Max Gust Speed -    
Visibility 10 miles    
Events      
Averages and records for this station are not official NWS values.
T = Trace of Precipitation, MM = Missing Value Source: NWS Daily Summary

Daily Weather History Graph

Daily Weather History Graph

Search for Another Location

Airport or City:

Trip Planner

Search our weather history database for the weather conditions in past years. The results will help you decide how hot, cold, wet, or windy it might be!

Date:

Astronomy

Dec. 12, 2012 Rise Set
Actual Time 7:07 AM EST 4:12 PM EST
Civil Twilight 6:35 AM EST 4:44 PM EST
Nautical Twilight 5:59 AM EST 5:20 PM EST
Astronomical Twilight 5:25 AM EST 5:54 PM EST
Moon 6:08 AM EST (12/12) 3:46 PM EST (12/12)
Length of Visible Light 10h 08m
Length of Day
9h 04m
Waning Crescent, 1% of the Moon is Illuminated
Dec 12
Waning Crescent
Dec 13
New
Dec 20
First Quarter
Dec 28
Full
Jan 4
Last Quarter

Hourly Weather History & Observations

Time (EST) Temp. Windchill Dew Point Humidity Pressure Visibility Wind Dir Wind Speed Gust Speed Precip Events Conditions
12:51 AM 30.0 °F - 21.0 °F 69% 30.18 in 10.0 mi Calm Calm - N/A   Clear
1:51 AM 28.0 °F - 20.1 °F 72% 30.21 in 10.0 mi Calm Calm - N/A   Clear
2:51 AM 26.1 °F - 21.0 °F 81% 30.22 in 10.0 mi Calm Calm - N/A   Clear
3:51 AM 25.2 °F - 21.0 °F 84% 30.24 in 10.0 mi Calm Calm - N/A   Clear
4:51 AM 25.2 °F - 21.0 °F 84% 30.27 in 10.0 mi Calm Calm - N/A   Clear
5:51 AM 26.1 °F - 21.0 °F 81% 30.30 in 10.0 mi Calm Calm - N/A   Clear
6:51 AM 25.2 °F - 22.1 °F 88% 30.32 in 10.0 mi Calm Calm - N/A   Clear
7:51 AM 25.2 °F - 21.0 °F 84% 30.34 in 10.0 mi Calm Calm - N/A   Clear
8:51 AM 25.2 °F - 22.1 °F 88% 30.36 in 10.0 mi Calm Calm - N/A   Clear
9:51 AM 31.1 °F - 20.1 °F 64% 30.37 in 10.0 mi Calm Calm - N/A   Clear
10:51 AM 34.0 °F - 21.0 °F 59% 30.37 in 10.0 mi Calm Calm - N/A   Clear
11:51 AM 34.9 °F 30.8 °F 22.1 °F 60% 30.35 in 10.0 mi Variable 4.6 mph - N/A   Clear
12:51 PM 36.9 °F 33.1 °F 22.1 °F 55% 30.34 in 10.0 mi SSW 4.6 mph - N/A   Clear
1:51 PM 37.9 °F 35.5 °F 22.1 °F 53% 30.35 in 10.0 mi SSE 3.5 mph - N/A   Clear
2:51 PM 37.9 °F 33.5 °F 21.0 °F 51% 30.35 in 10.0 mi SSE 5.8 mph - N/A   Clear
3:51 PM 36.0 °F - 22.1 °F 57% 30.38 in 10.0 mi Calm Calm - N/A   Clear
4:51 PM 30.0 °F - 24.1 °F 79% 30.38 in 10.0 mi Calm Calm - N/A   Clear
5:51 PM 31.1 °F - 24.1 °F 75% 30.40 in 10.0 mi Calm Calm - N/A   Overcast
6:51 PM 30.0 °F - 23.0 °F 75% 30.41 in 10.0 mi Calm Calm - N/A   Clear
7:51 PM 28.0 °F - 23.0 °F 81% 30.42 in 10.0 mi Calm Calm - N/A   Clear
8:51 PM 26.1 °F - 23.0 °F 88% 30.42 in 10.0 mi Calm Calm - N/A   Clear
9:51 PM 27.1 °F - 23.0 °F 84% 30.44 in 10.0 mi Calm Calm - N/A   Clear
10:51 PM 25.2 °F - 22.1 °F 88% 30.44 in 10.0 mi Calm Calm - N/A   Clear
11:51 PM 24.1 °F - 21.0 °F 88% 30.45 in 10.0 mi Calm Calm - N/A   Clear